This demonstration page uses our WeatherBlox Daily Observations layout. Learn more.

Left ArrowRight Arrow

38.20091, -84.87328

Hourly Observations for September 12, 2021

Temp ( °F °C ) Dew Point ( °F °C ) Humidity (%) Winds ( mph kmh ) Pressure ( in mb ) Visibility ( mi km ) Precip ( " mm )
12:53 am 00:53 Clear 70 21.1 62 16.7 76 76 SSW 8 13 30.14 1021 10 16 0.00 0.00
1:53 am 01:53 Clear 69 20.6 62 16.7 78 78 SSW 8 13 30.14 1021 10 16 0.00 0.00
2:53 am 02:53 Clear 68 20 62 16.7 81 81 SSW 8 13 30.15 1021 10 16 0.00 0.00
3:53 am 03:53 Clear 67 19.4 62 16.7 84 84 SW 7 11 30.16 1021 10 16 0.00 0.00
4:53 am 04:53 Clear 66 18.9 62 16.7 87 87 SSW 5 7 30.17 1022 10 16 0.00 0.00
5:53 am 05:53 Clear 65 18.3 61 16.1 87 87 S 6 9 30.18 1022 10 16 0.00 0.00
6:53 am 06:53 Clear 65 18.3 61 16.1 87 87 SSW 6 9 30.19 1022 10 16 0.00 0.00
7:53 am 07:53 Sunny 65 18.3 62 16.7 90 90 SSW 8 13 30.20 1023 10 16 0.00 0.00
8:53 am 08:53 Sunny 69 20.6 63 17.2 81 81 SSW 8 13 30.21 1023 10 16 0.00 0.00
9:53 am 09:53 Sunny 73 22.8 64 17.8 74 74 SW 12 19 30.21 1023 10 16 0.00 0.00
10:53 am 10:53 Sunny 77 25 65 18.3 66 66 SW 12 19 30.21 1023 10 16 0.00 0.00
11:53 am 11:53 Sunny 80 26.7 65 18.3 60 60 SW 13 20 30.21 1023 10 16 0.00 0.00
12:53 pm 12:53 Sunny 82 27.8 66 18.9 58 58 SW 15 24 30.19 1022 10 16 0.00 0.00
1:53 pm 13:53 Sunny 84 28.9 66 18.9 55 55 SW 15 24 30.19 1022 10 16 0.00 0.00
2:53 pm 14:53 Sunny 85 29.4 67 19.4 55 55 SW 13 20 30.17 1022 10 16 0.00 0.00
3:53 pm 15:53 Sunny 84 28.9 67 19.4 57 57 SSW 14 22 30.16 1021 10 16 0.00 0.00
4:53 pm 16:53 Sunny 84 28.9 68 20 59 59 SSW 14 22 30.14 1021 10 16 0.00 0.00
5:53 pm 17:53 Sunny 83 28.3 67 19.4 59 59 SW 12 19 30.14 1021 10 16 0.00 0.00
6:53 pm 18:53 Sunny 81 27.2 68 20 65 65 SSW 10 17 30.14 1021 10 16 0.00 0.00
7:53 pm 19:53 Clear 77 25 68 20 74 74 SSW 8 13 30.14 1021 10 16 0.00 0.00
8:53 pm 20:53 Clear 76 24.4 68 20 77 77 SW 9 15 30.15 1021 10 16 0.00 0.00
9:53 pm 21:53 Clear 75 23.9 68 20 79 79 SSW 9 15 30.15 1021 10 16 0.00 0.00
10:53 pm 22:53 Clear 74 23.3 67 19.4 79 79 SSW 8 13 30.15 1021 10 16 0.00 0.00
11:53 pm 23:53 Clear 73 22.8 68 20 84 84 SSW 9 15 30.16 1021 10 16 0.00 0.00

Powered by AerisWeather